This demonstration page uses our WeatherBlox Daily Observations layout. Learn more.

Left ArrowRight Arrow

38.83388, -104.82136

Hourly Observations for April 24, 2022

Temp ( °F °C ) Dew Point ( °F °C ) Humidity (%) Winds ( mph kmh ) Pressure ( in mb ) Visibility ( mi km ) Precip ( " mm )
12:58 am 00:58 undefined 41 4.9 17 -8.2 38 38 Calm 29.57 1001 N/A 0.00 0.00
1:58 am 01:58 undefined 41 4.9 21 -6.3 45 45 SE 5 7 29.61 1003 10 16 0.00 0.00
2:58 am 02:58 Clear 40 4.2 22 -5.3 50 50 E 3 6 29.56 1001 10 16 0.00 0.00
3:58 am 03:58 undefined N/A N/A N/A undefined N/A N/A 10 16 0.00 0.00
4:58 am 04:58 Cloudy 39 4.1 21 -5.9 49 49 Calm 29.62 1003 10 16 0.00 0.00
5:58 am 05:58 Mostly Cloudy 37 2.7 19 -7 49 49 SSE 9 15 29.64 1004 10 16 0.00 0.00
6:58 am 06:58 Mostly Cloudy 37 2.9 19 -7 49 49 SE 3 6 29.69 1005 10 16 0.00 0.00
7:58 am 07:58 Cloudy 37 2.7 20 -6.4 52 52 Calm 29.76 1008 10 16 0.00 0.00
8:58 am 08:58 undefined 40 4.5 20 -6.4 45 45 ENE 6 9 29.79 1009 10 16 0.00 0.00
9:58 am 09:58 Cloudy 41 4.8 21 -6.1 46 46 ENE 10 17 29.80 1009 10 16 0.00 0.00
10:37 am 10:37 undefined N/A N/A N/A ENE 6 9 N/A N/A 0.00 0.00
10:53 am 10:53 undefined N/A N/A N/A undefined N/A N/A N/A 0.00 0.00
10:55 am 10:55 undefined N/A N/A N/A Calm N/A N/A 0.00 0.00
10:58 am 10:58 undefined 36 2 26 -3.1 69 69 SE 3 6 29.80 1009 N/A 0.00 0.00
11:35 am 11:35 Cloudy with Light Rain 37 3 28 -2 70 70 Calm 29.85 1011 10 16 0.00 0.00
11:38 am 11:38 Cloudy 39 4 28 -2 65 65 NW 6 9 29.83 1010 10 16 0.00 0.00
11:58 am 11:58 Cloudy 41 5.1 25 -4 52 52 Calm 29.86 1011 10 16 0.00 0.00
12:58 pm 12:58 Mostly Cloudy 44 6.6 24 -4.2 46 46 NNW 9 15 29.87 1011 10 16 0.00 0.00
1:58 pm 13:58 Cloudy 44 6.7 21 -6.3 39 39 E 3 6 29.85 1011 10 16 0.00 0.00
2:58 pm 14:58 Cloudy 46 7.5 20 -6.6 36 36 E 5 7 29.85 1011 10 16 0.00 0.00
3:58 pm 15:58 Cloudy 44 6.5 25 -4 47 47 WSW 6 9 29.85 1011 10 16 0.00 0.00
4:33 pm 16:33 Cloudy with Light Rain 41 5 27 -3 57 57 SE 7 11 29.87 1012 10 16 0.00 0.00
4:36 pm 16:36 Cloudy 41 5 27 -3 57 57 S 14 22 29.87 1012 9 14 0.00 0.00
4:58 pm 16:58 Cloudy 38 3.6 30 -1.2 71 71 SE 5 7 29.86 1011 7 11 0.00 0.00
5:03 pm 17:03 Cloudy 37 3 30 -1 75 75 Calm 29.86 1011 5 8 0.00 0.00
5:10 pm 17:10 Cloudy with Light Snow 37 3 32 0 81 81 WSW 6 9 29.86 1011 4 6 0.00 0.00
5:29 pm 17:29 Cloudy 37 3 36 2 93 93 WNW 3 6 29.88 1012 9 14 0.00 0.00
5:32 pm 17:32 Cloudy with Light Rain 37 3 36 2 93 93 W 3 6 29.89 1012 9 14 0.00 0.00
5:37 pm 17:37 Cloudy 37 3 36 2 93 93 NW 7 11 29.89 1012 10 16 0.00 0.00
5:58 pm 17:58 Cloudy 37 2.9 36 2 94 94 WNW 7 11 29.89 1012 10 16 0.01 0.25
6:03 pm 18:03 Cloudy 37 3 36 2 93 93 W 6 9 29.89 1012 10 16 0.00 0.00
6:46 pm 18:46 Partly Cloudy with Light Rain 37 3 34 1 87 87 undefined N/A 29.90 1013 10 16 0.00 0.00
7:05 pm 19:05 undefined N/A N/A N/A undefined N/A N/A N/A 0.00 0.00
7:07 pm 19:07 Partly Cloudy with Drizzle N/A N/A N/A W 10 17 N/A N/A 0.00 0.00
7:22 pm 19:22 undefined 36 2 36 2 100 100 WNW 9 15 29.89 1012 10 16 0.00 0.00
7:27 pm 19:27 Partly Cloudy with Isolated Snow Showers 36 2 34 1 93 93 W 13 20 29.90 1013 10 16 0.00 0.00
7:51 pm 19:51 undefined N/A N/A N/A undefined N/A N/A N/A 0.00 0.00
7:53 pm 19:53 Partly Cloudy with Isolated Snow Showers N/A N/A N/A WSW 13 20 N/A N/A 0.00 0.00
7:58 pm 19:58 Partly Cloudy with Isolated Snow Showers 36 2.3 33 0.7 89 89 WSW 12 19 29.92 1013 N/A 0.00 0.00
8:20 pm 20:20 Cloudy 36 2 30 -1 81 81 WSW 14 22 29.93 1014 10 16 0.00 0.00
8:23 pm 20:23 Cloudy with Light Rain 36 2 30 -1 81 81 WSW 14 22 30.16 1021 10 16 0.00 0.00
8:58 pm 20:58 Cloudy with Light Rain 37 2.5 29 -1.5 75 75 W 12 19 29.91 1013 10 16 0.00 0.00
9:01 pm 21:01 Cloudy 37 3 30 -1 75 75 W 12 19 29.91 1013 10 16 0.00 0.00
9:26 pm 21:26 Cloudy 37 3 28 -2 70 70 W 8 13 29.93 1014 9 14 0.00 0.00
9:31 pm 21:31 Cloudy 36 2 28 -2 75 75 WSW 14 22 29.95 1014 6 10 0.00 0.00
9:38 pm 21:38 Cloudy with Light Snow 36 2 30 -1 81 81 WSW 14 22 29.91 1013 3 4 0.00 0.00
9:58 pm 21:58 Cloudy with Light Snow 35 1.6 31 -0.8 84 84 WSW 8 13 29.93 1014 5 8 0.00 0.00
10:58 pm 22:58 Cloudy with Light Snow 33 0.7 31 -0.5 92 92 W 10 17 29.96 1015 1 2 0.01 0.25
11:03 pm 23:03 Cloudy with Light Snow 32 0 32 0 100 100 NW 14 22 29.99 1016 5 8 0.00 0.00
11:15 pm 23:15 Cloudy with Light Snow 30 -1 30 -1 100 100 undefined N/A 30.02 1017 1 1 0.00 0.00
11:32 pm 23:32 undefined N/A N/A N/A W 9 15 N/A 1 2 0.00 0.00
11:33 pm 23:33 Partly Cloudy with Isolated Snow Showers N/A N/A N/A W 10 17 N/A 1 2 0.00 0.00
11:48 pm 23:48 Partly Cloudy with Isolated Snow Showers 30 -1 30 -1 100 100 undefined N/A 29.96 1015 1 2 0.00 0.00
11:58 pm 23:58 Partly Cloudy with Isolated Snow Showers N/A N/A N/A undefined N/A N/A 5 8 0.00 0.00
11:59 pm 23:59 undefined N/A N/A N/A W 12 19 N/A 5 8 0.00 0.00

Powered by AerisWeather